"Pseudo-MPEC" for CEJJK82

Created 2026 Apr 17 11:35:09 UT using Find_Orb

Click here for an explanation of pseudo-MPECs

 
 Astrometry: 
     CEJJK82*1C2026 04 16.37174015 20 00.341+05 44 14.14   ~4G9Z       VNEOCPG96
     CEJJK82 1C2026 04 16.37694415 20 04.031+05 44 29.51   ~4G9Z 21.28GVNEOCPG96
     CEJJK82 1C2026 04 16.38213515 20 07.624+05 44 45.20   ~4G9Z 21.55GVNEOCPG96
     CEJJK82 1C2026 04 16.38732715 20 11.353+05 45 01.04   ~4G9Z 21.04GVNEOCPG96
     CEJJK82  C2026 04 16.41391915 20 29.940+05 46 19.53   ~4GAZ 20.7 GWNEOCPH01
     CEJJK82  C2026 04 16.41739315 20 32.435+05 46 30.08   ~4GAZ 20.7 GWNEOCPH01
     CEJJK82 1C2026 04 16.41790915 20 33.169+05 46 34.82   ~4GAK 21.12GVNEOCPV06
     CEJJK82 1C2026 04 16.41914215 20 34.058+05 46 38.71   ~4GAK 21.18GVNEOCPV06
     CEJJK82 1C2026 04 16.42037415 20 34.940+05 46 42.28   ~4GAK 21.46GVNEOCPV06
     CEJJK82 1C2026 04 16.42160515 20 35.844+05 46 46.31   ~4GAK 21.21GVNEOCPV06
     CEJJK82  C2026 04 16.42738115 20 39.631+05 47 00.73   ~4GAZ 21.0 GWNEOCPH01
     CEJJK82  C2026 04 16.43419315 20 44.562+05 47 21.71   ~4GAZ 21.0 GWNEOCPH01
     CEJJK82 1C2026 04 17.09059015 29 55.208+06 23 37.00   ~4H7Z 20.6 GXNEOCP033
     CEJJK82 1C2026 04 17.09179015 29 56.306+06 23 41.30   ~4H7Z 20.6 GXNEOCP033
     CEJJK82 1C2026 04 17.09298015 29 57.336+06 23 45.80   ~4H7Z 20.3 GXNEOCP033
     CEJJK82 1C2026 04 17.09417015 29 58.348+06 23 49.90   ~4H7Z 20.6 GXNEOCP033
     CEJJK82 |C2026 04 17.21584015 31 57.060+06 34 15.20   ~4H6o 21.1 GVNEOCP807
     CEJJK82 |C2026 04 17.22629015 32 06.480+06 34 54.60   ~4H6o 21.1 GVNEOCP807
     CEJJK82 |C2026 04 17.23674015 32 16.010+06 35 34.50   ~4H6o 21.3 GVNEOCP807
     CEJJK82 1C2026 04 17.29684015 33 16.517+06 37 03.29   ~4H7Z 21.06GVNEOCPI52
     CEJJK82 1C2026 04 17.29912615 33 18.659+06 37 12.11   ~4H7Z 20.92GVNEOCPI52
     CEJJK82 1C2026 04 17.30026315 33 19.706+06 37 16.75   ~4H7Z 20.84GVNEOCPI52

Station data:
(033) Karl Schwarzschild Observatory, Tautenburg  (N50.980139 E11.711240)
   Germany.  Observer B. Stecklum. 1.34-m f/3 Schmidt + CCD.
(807) Cerro Tololo Observatory, La Serena  (S30.169133 W70.805900)  Chile.
   Observer R. Holmes. 0.61-m f/6.5 astrograph + CCD.
(G96) Mt. Lemmon Survey  (N32.442729 W110.788720)  US/Arizona.  Observer E.
   J. Christensen. Measurers T. Beuden, V. F. Carvajal, D. Fay, J. B.
   Fazekas, D. C. Fuls, A. R. Gibbs, A. D. Grauer, H. Gröller, J. K. Hogan,
   R. A. Kowalski, S. M. Larson, G. J. Leonard, D. Rankin, R. L. Seaman, F.
   C. Shelly, K. W. Wierzchoś. 1.5-m reflector + 10K CCD.
(H01) Magdalena Ridge Observatory, Socorro  (N33.984833 W107.189333)  US/New
   Mexico.  Observers W. H. Ryan, E. V. Ryan. Measurer W. H. Ryan. 2.4-m
   f/8.9 reflector + CCD.
(I52) Steward Observatory, Mt. Lemmon Station  (N32.442570 W110.788920)
   US/Arizona. Measurers T. Beuden, V. F. Carvajal, D. Fay, J. B. Fazekas, D.
   C. Fuls, A. R. Gibbs, A. D. Grauer, H. Gröller, J. K. Hogan, R. A.
   Kowalski, S. M. Larson, G. J. Leonard, D. Rankin, R. L. Seaman, F. C.
   Shelly, K. W. Wierzchoś. 1.0-m prime focus + CCD.
(V06) Catalina Sky Survey-Kuiper  (N32.416871 W110.732550)  US/Arizona.
   Measurers T. Beuden, V. F. Carvajal, D. Fay, J. B. Fazekas, D. C. Fuls, A.
   R. Gibbs, A. D. Grauer, H. Gröller, J. K. Hogan, R. A. Kowalski, S. M.
   Larson, G. J. Leonard, D. Rankin, R. L. Seaman, F. C. Shelly, K. W.
   Wierzchoś. 1.55-m reflector + CCD.

Orbital elements:  CEJJK82
   Perihelion 2026 Jun 8.004674 +/- 0.0482 TT =  0:06:43.8 (JD 2461199.504674)
Epoch 2026 Apr 17.0 TT = JDT 2461147.5   Earth MOID: 0.0162   Ve: 0.0391
M 341.187527649 +/- 0.13            Ma: 0.0027                   AutoNEOCP
n   0.361745798 +/- 0.00221         Peri.  247.086319 +/- 0.08
a   1.950744473 +/- 0.00794         Node    42.478668 +/- 0.040
e   0.63755790 +/- 0.00183          Incl.    5.921282 +/- 0.023
P   2.725/995.155d         H 25.64  G  0.15   U  8.6
q 0.707031923 +/- 0.000763    Q 3.194457024 +/- 0.0166    (J2000 ecliptic)
From 22 observations 2026 Apr. 16-17 (22.3 hr); mean residual 0".30
Residuals in arcseconds: 
260416 G96  .48+  .62+    260416 V06  .15-  .17-    260417 807  1.1+  .36+    
260416 G96  .57+  .10+    260416 V06  .14+  .08+    260417 807  .19-  .20-    
260416 G96  .72-  .07-    260416 H01  .01-  .13-    260417 807  .18-  .33-    
260416 G96  .07-  .11-    260416 H01  .13+  .07-    260417 I52  .04-  .07+    
260416 H01  .05-  .06-    260417 033  .13-  .02-    260417 I52  .07-  .01-    
260416 H01  .06-  .15-    260417 033  .39+  .07-    260417 I52  .36-  .19+    
260416 V06  .18-  .07-    260417 033  .03+  .11+    
260416 V06  .11-  .04+    260417 033  .61-  .11-    

Ephemerides (geocentric):
Date (UTC) HH   RA             Dec           delta  r     elong  mag " sig PA
---- --------  ------------   ------------  ------ ------ -----  --- --------
2026 04 17 12  15 36 37.401   +06 51 29.94  .06232 1.0563 146.4 21.1 .534  80
2026 04 17 13  15 37 21.064   +06 54 20.53  .06192 1.0559 146.2 21.1 .635  79
2026 04 17 14  15 38 05.301   +06 57 13.04  .06152 1.0554 146.0 21.1 .743  78
2026 04 17 15  15 38 50.122   +07 00 07.49  .06111 1.0550 145.9 21.1 .859  78
2026 04 17 16  15 39 35.540   +07 03 03.91  .06071 1.0546 145.7 21.0 .984  77
2026 04 17 17  15 40 21.564   +07 06 02.33  .06031 1.0542 145.6 21.0 1.12  77
2026 04 17 18  15 41 08.207   +07 09 02.78  .05991 1.0538 145.4 21.0 1.26  77
2026 04 17 19  15 41 55.479   +07 12 05.28  .05951 1.0533 145.2 21.0 1.41  76
2026 04 17 20  15 42 43.393   +07 15 09.87  .05911 1.0529 145.1 21.0 1.57  76
2026 04 17 21  15 43 31.960   +07 18 16.57  .05871 1.0525 144.9 21.0 1.74  76
2026 04 17 22  15 44 21.194   +07 21 25.41  .05831 1.0521 144.7 21.0 1.92  76
2026 04 17 23  15 45 11.106   +07 24 36.43  .05792 1.0517 144.5 21.0 2.12  76
2026 04 18 00  15 46 01.709   +07 27 49.65  .05752 1.0512 144.3 21.0 2.32  76
2026 04 18 01  15 46 53.018   +07 31 05.11  .05713 1.0508 144.2 21.0 2.53  76
2026 04 18 02  15 47 45.045   +07 34 22.83  .05673 1.0504 144.0 20.9 2.76  76
2026 04 18 03  15 48 37.804   +07 37 42.84  .05634 1.0500 143.8 20.9 2.99  76
2026 04 18 04  15 49 31.309   +07 41 05.18  .05595 1.0496 143.6 20.9 3.25  76
2026 04 18 05  15 50 25.575   +07 44 29.88  .05555 1.0492 143.4 20.9 3.51  76
2026 04 18 06  15 51 20.617   +07 47 56.96  .05516 1.0487 143.2 20.9 3.78  75
2026 04 18 07  15 52 16.449   +07 51 26.47  .05477 1.0483 143.0 20.9 4.08  75
2026 04 18 08  15 53 13.087   +07 54 58.42  .05439 1.0479 142.8 20.9 4.38  75
2026 04 18 09  15 54 10.547   +07 58 32.86  .05400 1.0475 142.6 20.9 4.70  75
2026 04 18 10  15 55 08.845   +08 02 09.82  .05361 1.0471 142.4 20.9 5.03  75
2026 04 18 11  15 56 07.998   +08 05 49.32  .05323 1.0466 142.1 20.8 5.39  76
2026 04 18 12  15 57 08.021   +08 09 31.40  .05284 1.0462 141.9 20.8 5.75  76
2026 04 18 13  15 58 08.934   +08 13 16.09  .05246 1.0458 141.7 20.8 6.14  76
2026 04 18 14  15 59 10.752   +08 17 03.41  .05208 1.0454 141.5 20.8 6.54  76
2026 04 18 15  16 00 13.495   +08 20 53.41  .05170 1.0450 141.2 20.8 6.96  76
2026 04 18 16  16 01 17.180   +08 24 46.12  .05132 1.0445 141.0 20.8 7.40  76
2026 04 18 17  16 02 21.826   +08 28 41.56  .05094 1.0441 140.8 20.8 7.86  76
2026 04 18 18  16 03 27.453   +08 32 39.76  .05056 1.0437 140.5 20.8 8.33  76
2026 04 18 19  16 04 34.079   +08 36 40.76  .05018 1.0433 140.3 20.8 8.83  76
2026 04 18 20  16 05 41.726   +08 40 44.58  .04981 1.0429 140.0 20.8 9.35  76
2026 04 18 21  16 06 50.413   +08 44 51.26  .04944 1.0425 139.8 20.7 9.90  76
2026 04 18 22  16 08 00.162   +08 49 00.82  .04906 1.0420 139.5 20.7 10.5  76
2026 04 18 23  16 09 10.993   +08 53 13.29  .04869 1.0416 139.3 20.7 11.1  76
2026 04 19 00  16 10 22.929   +08 57 28.70  .04832 1.0412 139.0 20.7 11.7  76
2026 04 19 01  16 11 35.991   +09 01 47.07  .04795 1.0408 138.7 20.7 12.3  76
2026 04 19 02  16 12 50.202   +09 06 08.44  .04759 1.0404 138.4 20.7 13.0  76
2026 04 19 03  16 14 05.586   +09 10 32.82  .04722 1.0399 138.2 20.7 13.7  76
2026 04 19 04  16 15 22.165   +09 15 00.23  .04686 1.0395 137.9 20.7 14.4  76
2026 04 19 05  16 16 39.965   +09 19 30.71  .04650 1.0391 137.6 20.7 15.1  76
2026 04 19 06  16 17 59.009   +09 24 04.27  .04613 1.0387 137.3 20.7 15.9  76
2026 04 19 07  16 19 19.322   +09 28 40.93  .04578 1.0383 137.0 20.6 16.7  76
2026 04 19 08  16 20 40.930   +09 33 20.70  .04542 1.0379 136.7 20.6 17.6  76
2026 04 19 09  16 22 03.859   +09 38 03.61  .04506 1.0374 136.4 20.6 18.4  76
2026 04 19 10  16 23 28.134   +09 42 49.67  .04471 1.0370 136.1 20.6 19.3  77
2026 04 19 11  16 24 53.784   +09 47 38.88  .04436 1.0366 135.7 20.6 20.3  77